Location: Newark
(34.1333°N, 7.9667°W)
Time: 05:31:28
(UTC+00:00)

KKS-1 - Visible Passes

Search period start: 08 June 2023 00:00
Search period end: 18 June 2023 00:00
Orbit: 633 x 644 km, 98.2° (Epoch: 07 June)

Date Brightness Start Highest point End Pass type
(mag) Time Alt. Az. Time Alt. Az. Time Alt. Az.
08 Jun ? 00:05:25 10° NNW 00:07:52 20° NW 00:07:52 20° NW visible
08 Jun ? 22:51:13 10° NNE 22:53:35 29° NE 22:53:35 29° NE visible
09 Jun ? 00:29:49 10° NW 00:31:08 12° WNW 00:31:08 12° WNW visible
09 Jun ? 23:14:06 10° N 23:16:52 38° N 23:16:52 38° N visible
10 Jun ? 23:37:15 10° N 23:40:07 33° NNW 23:40:07 33° NNW visible
11 Jun ? 22:24:19 10° NE 22:25:51 18° ENE 22:25:51 18° ENE visible
12 Jun ? 00:00:45 10° NNW 00:03:24 22° NW 00:03:24 22° NW visible
12 Jun ? 22:46:46 10° NNE 22:49:06 28° NE 22:49:06 28° NE visible
13 Jun ? 00:24:51 10° NW 00:26:39 13° WNW 00:26:39 13° WNW visible
13 Jun ? 23:09:34 10° NNE 23:12:21 38° NNE 23:12:21 38° NNE visible
14 Jun ? 23:32:40 10° N 23:35:37 36° NNW 23:35:37 36° NNW visible
15 Jun ? 22:19:58 10° NE 22:21:18 16° ENE 22:21:18 16° ENE visible
15 Jun ? 23:56:04 10° NNW 23:58:51 25° NW 23:58:51 25° NW visible
16 Jun ? 22:42:18 10° NNE 22:44:32 26° NE 22:44:32 26° NE visible
17 Jun ? 00:19:58 10° NNW 00:22:06 15° WNW 00:22:06 15° WNW visible
17 Jun ? 23:05:02 10° NNE 23:07:47 37° NNE 23:07:47 37° NNE visible
